Time,TemperatureF,DewpointF,PressureIn,WindDirection,WindDirectionDegrees,WindSpeedMPH,WindSpeedGustMPH,Humidity,HourlyPrecipIn,Conditions,Clouds,dailyrainin,SoftwareType,DateUTC
2013-01-18 00:00:00,32.5,27.7,30.07,NW,315,3.8,3.8,82,0.00,,,0.00,WUHU21623XXSP,2013-01-18 05:00:00,
2013-01-18 00:01:00,32.5,27.7,30.07,NW,315,4.0,4.0,82,0.00,,,0.00,WUHU21623XXSP,2013-01-18 05:01:00,
2013-01-18 00:02:00,32.5,27.7,30.07,NW,315,4.0,4.0,82,0.00,,,0.00,WUHU21623XXSP,2013-01-18 05:02:00,
2013-01-18 00:03:00,32.4,27.5,30.08,NW,315,4.7,4.7,82,0.00,,,0.00,WUHU21623XXSP,2013-01-18 05:03:00,
2013-01-18 00:08:00,32.2,27.1,30.08,NNW,337,6.5,6.5,81,0.00,,,0.00,WUHU21623XXSP,2013-01-18 05:08:00,
2013-01-18 00:13:00,32.2,27.1,30.08,NW,315,8.5,8.5,80,0.00,,,0.00,WUHU21623XXSP,2013-01-18 05:13:00,
2013-01-18 00:18:00,32.2,26.8,30.08,NW,315,2.7,8.5,80,0.00,,,0.00,WUHU21623XXSP,2013-01-18 05:18:00,
2013-01-18 00:23:00,31.8,25.8,30.09,NNW,337,6.7,11.4,78,0.00,,,0.00,WUHU21623XXSP,2013-01-18 05:23:00,
2013-01-18 00:28:00,31.8,25.8,30.09,WNW,292,2.5,11.4,78,0.00,,,0.00,WUHU21623XXSP,2013-01-18 05:28:00,
2013-01-18 00:33:00,31.6,25.3,30.09,NW,315,2.5,6.7,77,0.00,,,0.00,WUHU21623XXSP,2013-01-18 05:33:00,
2013-01-18 00:38:00,31.3,24.6,30.09,NW,315,8.5,8.5,75,0.00,,,0.00,WUHU21623XXSP,2013-01-18 05:38:00,
2013-01-18 00:43:00,31.3,23.9,30.10,NW,315,6.0,9.6,74,0.00,,,0.00,WUHU21623XXSP,2013-01-18 05:43:00,
2013-01-18 00:49:00,31.1,23.1,30.10,NW,315,7.8,9.6,72,0.00,,,0.00,WUHU21623XXSP,2013-01-18 05:49:00,
2013-01-18 00:53:00,31.1,22.5,30.10,NW,315,4.3,7.8,70,0.00,,,0.00,WUHU21623XXSP,2013-01-18 05:53:00,
2013-01-18 00:59:00,31.1,22.5,30.11,NW,315,8.9,9.4,70,0.00,,,0.00,WUHU21623XXSP,2013-01-18 05:59:00,
2013-01-18 01:04:00,31.1,22.5,30.11,WNW,292,4.9,9.4,70,0.00,,,0.00,WUHU21623XXSP,2013-01-18 06:04:00,
2013-01-18 01:09:00,31.1,22.1,30.12,West,270,4.0,8.9,69,0.00,,,0.00,WUHU21623XXSP,2013-01-18 06:09:00,
2013-01-18 01:14:00,31.1,22.1,30.12,NNW,337,5.8,10.7,69,0.00,,,0.00,WUHU21623XXSP,2013-01-18 06:14:00,
2013-01-18 01:19:00,30.9,22.5,30.13,NNW,337,5.8,10.7,70,0.00,,,0.00,WUHU21623XXSP,2013-01-18 06:19:00,
2013-01-18 01:24:00,30.7,22.6,30.13,NW,315,9.2,11.9,71,0.00,,,0.00,WUHU21623XXSP,2013-01-18 06:24:00,
2013-01-18 01:29:00,30.4,23.0,30.13,NW,315,8.1,13.4,74,0.00,,,0.00,WUHU21623XXSP,2013-01-18 06:29:00,
2013-01-18 01:34:00,30.0,22.7,30.14,NW,315,4.7,13.4,74,0.00,,,0.00,WUHU21623XXSP,2013-01-18 06:34:00,
2013-01-18 01:39:00,29.5,22.8,30.14,NW,315,4.9,6.5,77,0.00,,,0.00,WUHU21623XXSP,2013-01-18 06:39:00,
2013-01-18 01:44:00,29.3,22.9,30.14,NW,315,4.9,4.9,77,0.00,,,0.00,WUHU21623XXSP,2013-01-18 06:44:00,
2013-01-18 01:49:00,29.1,22.8,30.14,NW,315,3.4,4.9,78,0.00,,,0.00,WUHU21623XXSP,2013-01-18 06:49:00,
2013-01-18 01:54:00,29.1,23.1,30.15,NW,315,6.7,6.7,78,0.00,,,0.00,WUHU21623XXSP,2013-01-18 06:54:00,
2013-01-18 01:59:00,29.1,23.1,30.15,NW,315,1.8,6.7,79,0.00,,,0.00,WUHU21623XXSP,2013-01-18 06:59:00,
2013-01-18 02:04:00,28.9,23.2,30.16,NW,315,5.1,8.1,79,0.00,,,0.00,WUHU21623XXSP,2013-01-18 07:04:00,
2013-01-18 02:09:00,28.6,23.2,30.16,North,0,7.2,8.1,80,0.00,,,0.00,WUHU21623XXSP,2013-01-18 07:09:00,
2013-01-18 02:14:00,28.2,23.0,30.17,North,0,5.1,7.2,80,0.00,,,0.00,WUHU21623XXSP,2013-01-18 07:14:00,
2013-01-18 02:19:00,28.2,23.1,30.17,WNW,292,4.7,7.2,81,0.00,,,0.00,WUHU21623XXSP,2013-01-18 07:19:00,
2013-01-18 02:24:00,28.0,22.9,30.18,NW,315,5.1,6.3,81,0.00,,,0.00,WUHU21623XXSP,2013-01-18 07:24:00,
2013-01-18 02:29:00,27.7,22.6,30.18,NW,315,13.0,13.0,81,0.00,,,0.00,WUHU21623XXSP,2013-01-18 07:29:00,
2013-01-18 02:34:00,27.5,22.1,30.19,NW,315,5.4,13.0,80,0.00,,,0.00,WUHU21623XXSP,2013-01-18 07:34:00,
2013-01-18 02:39:00,27.3,21.3,30.19,WNW,292,9.6,13.0,78,0.00,,,0.00,WUHU21623XXSP,2013-01-18 07:39:00,
2013-01-18 02:44:00,27.1,20.8,30.19,NW,315,8.9,9.8,77,0.00,,,0.00,WUHU21623XXSP,2013-01-18 07:44:00,
2013-01-18 02:49:00,27.1,20.8,30.20,NW,315,8.9,9.6,77,0.00,,,0.00,WUHU21623XXSP,2013-01-18 07:49:00,
2013-01-18 02:54:00,26.8,20.5,30.21,NNW,337,9.8,9.8,77,0.00,,,0.00,WUHU21623XXSP,2013-01-18 07:54:00,
2013-01-18 02:59:00,26.4,20.1,30.21,WNW,292,9.4,9.8,77,0.00,,,0.00,WUHU21623XXSP,2013-01-18 07:59:00,
2013-01-18 03:04:00,26.2,19.9,30.21,WNW,292,9.4,9.8,77,0.00,,,0.00,WUHU21623XXSP,2013-01-18 08:04:00,
2013-01-18 03:09:00,25.7,19.6,30.22,North,0,6.0,9.4,77,0.00,,,0.00,WUHU21623XXSP,2013-01-18 08:09:00,
2013-01-18 03:14:00,25.5,19.3,30.22,NW,315,5.4,6.9,77,0.00,,,0.00,WUHU21623XXSP,2013-01-18 08:14:00,
2013-01-18 03:19:00,25.5,19.3,30.22,NNW,337,7.2,7.2,77,0.00,,,0.00,WUHU21623XXSP,2013-01-18 08:19:00,
2013-01-18 03:24:00,25.5,19.3,30.23,North,0,9.4,9.4,77,0.00,,,0.00,WUHU21623XXSP,2013-01-18 08:24:00,
2013-01-18 03:29:00,25.5,19.3,30.23,North,0,9.4,9.4,77,0.00,,,0.00,WUHU21623XXSP,2013-01-18 08:29:00,
2013-01-18 03:34:00,25.5,19.3,30.23,North,0,9.4,9.4,77,0.00,,,0.00,WUHU21623XXSP,2013-01-18 08:34:00,
2013-01-18 03:39:00,25.5,19.3,30.24,NW,315,3.8,9.4,77,0.00,,,0.00,WUHU21623XXSP,2013-01-18 08:39:00,
2013-01-18 03:44:00,25.5,19.3,30.24,NW,315,4.7,4.7,76,0.00,,,0.00,WUHU21623XXSP,2013-01-18 08:44:00,
2013-01-18 03:49:00,25.3,18.8,30.24,NW,315,6.9,8.3,76,0.00,,,0.00,WUHU21623XXSP,2013-01-18 08:49:00,
2013-01-18 03:54:00,25.2,18.3,30.25,WNW,292,7.6,8.9,75,0.00,,,0.00,WUHU21623XXSP,2013-01-18 08:54:00,
2013-01-18 03:59:00,25.2,18.3,30.25,NW,315,3.8,8.9,75,0.00,,,0.00,WUHU21623XXSP,2013-01-18 08:59:00,
2013-01-18 04:04:00,25.2,18.3,30.25,North,0,4.3,4.3,75,0.00,,,0.00,WUHU21623XXSP,2013-01-18 09:04:00,
2013-01-18 04:09:00,25.0,17.5,30.25,WNW,292,7.2,7.2,73,0.00,,,0.00,WUHU21623XXSP,2013-01-18 09:09:00,
2013-01-18 04:14:00,24.6,17.5,30.25,WNW,292,7.2,7.2,72,0.00,,,0.00,WUHU21623XXSP,2013-01-18 09:14:00,
2013-01-18 04:19:00,24.6,16.8,30.26,NW,315,6.9,7.2,71,0.00,,,0.00,WUHU21623XXSP,2013-01-18 09:19:00,
2013-01-18 04:24:00,24.4,16.3,30.26,NW,315,6.3,6.9,71,0.00,,,0.00,WUHU21623XXSP,2013-01-18 09:24:00,
2013-01-18 04:29:00,24.1,16.3,30.26,NNW,337,6.3,6.9,71,0.00,,,0.00,WUHU21623XXSP,2013-01-18 09:29:00,
2013-01-18 04:34:00,24.1,15.7,30.26,NW,315,8.9,8.9,70,0.00,,,0.00,WUHU21623XXSP,2013-01-18 09:34:00,
2013-01-18 04:39:00,24.1,15.7,30.27,North,0,11.0,11.0,70,0.00,,,0.00,WUHU21623XXSP,2013-01-18 09:39:00,
2013-01-18 04:44:00,23.9,15.2,30.27,North,0,6.3,11.0,69,0.00,,,0.00,WUHU21623XXSP,2013-01-18 09:44:00,
2013-01-18 04:49:00,23.9,15.5,30.27,NNW,337,3.8,11.0,70,0.00,,,0.00,WUHU21623XXSP,2013-01-18 09:49:00,
2013-01-18 04:54:00,23.7,15.0,30.28,North,0,9.8,9.8,69,0.00,,,0.00,WUHU21623XXSP,2013-01-18 09:54:00,
2013-01-18 04:59:00,23.7,15.0,30.28,North,0,9.8,9.8,69,0.00,,,0.00,WUHU21623XXSP,2013-01-18 09:59:00,
2013-01-18 05:04:00,23.7,15.0,30.29,NW,315,4.0,9.8,69,0.00,,,0.00,WUHU21623XXSP,2013-01-18 10:04:00,
2013-01-18 05:09:00,23.5,15.2,30.30,NW,315,10.5,10.5,70,0.00,,,0.00,WUHU21623XXSP,2013-01-18 10:09:00,
2013-01-18 05:14:00,23.5,15.2,30.30,NW,315,10.5,10.5,70,0.00,,,0.00,WUHU21623XXSP,2013-01-18 10:14:00,
2013-01-18 05:19:00,23.4,15.2,30.31,NW,315,10.5,10.5,70,0.00,,,0.00,WUHU21623XXSP,2013-01-18 10:19:00,
2013-01-18 05:24:00,23.2,15.0,30.31,NW,315,10.5,10.5,69,0.00,,,0.00,WUHU21623XXSP,2013-01-18 10:24:00,
2013-01-18 05:29:00,23.2,14.5,30.32,NNW,337,8.7,10.5,69,0.00,,,0.00,WUHU21623XXSP,2013-01-18 10:29:00,
2013-01-18 05:34:00,22.8,13.5,30.32,NW,315,5.4,8.7,67,0.00,,,0.00,WUHU21623XXSP,2013-01-18 10:34:00,
2013-01-18 05:39:00,22.8,13.5,30.32,WNW,292,7.2,8.7,66,0.00,,,0.00,WUHU21623XXSP,2013-01-18 10:39:00,
2013-01-18 05:44:00,22.5,12.8,30.32,NW,315,4.7,7.2,66,0.00,,,0.00,WUHU21623XXSP,2013-01-18 10:44:00,
2013-01-18 05:49:00,22.3,12.6,30.33,NW,315,4.7,6.9,65,0.00,,,0.00,WUHU21623XXSP,2013-01-18 10:49:00,
2013-01-18 05:54:00,22.1,11.7,30.33,NW,315,8.5,8.5,64,0.00,,,0.00,WUHU21623XXSP,2013-01-18 10:54:00,
2013-01-18 05:59:00,21.9,11.5,30.34,NW,315,8.5,8.5,64,0.00,,,0.00,WUHU21623XXSP,2013-01-18 10:59:00,
2013-01-18 06:04:00,21.9,11.9,30.34,NW,315,2.7,8.5,65,0.00,,,0.00,WUHU21623XXSP,2013-01-18 11:04:00,
2013-01-18 06:09:00,21.9,11.9,30.34,NW,315,5.6,8.5,65,0.00,,,0.00,WUHU21623XXSP,2013-01-18 11:09:00,
2013-01-18 06:14:00,21.7,11.9,30.34,NW,315,5.8,5.8,65,0.00,,,0.00,WUHU21623XXSP,2013-01-18 11:14:00,
2013-01-18 06:19:00,21.7,11.7,30.35,NNW,337,4.3,5.8,65,0.00,,,0.00,WUHU21623XXSP,2013-01-18 11:19:00,
2013-01-18 06:24:00,21.6,11.2,30.35,NW,315,11.2,11.2,64,0.00,,,0.00,WUHU21623XXSP,2013-01-18 11:24:00,
2013-01-18 06:29:00,21.4,10.7,30.35,North,0,9.4,11.2,63,0.00,,,0.00,WUHU21623XXSP,2013-01-18 11:29:00,
2013-01-18 06:34:00,21.0,10.3,30.35,WNW,292,5.8,9.4,63,0.00,,,0.00,WUHU21623XXSP,2013-01-18 11:34:00,
2013-01-18 06:39:00,21.0,10.3,30.35,NW,315,3.4,6.9,64,0.00,,,0.00,WUHU21623XXSP,2013-01-18 11:39:00,
2013-01-18 06:44:00,20.8,10.5,30.36,NW,315,3.6,5.8,64,0.00,,,0.00,WUHU21623XXSP,2013-01-18 11:44:00,
2013-01-18 06:49:00,20.8,10.2,30.36,NW,315,7.2,7.2,63,0.00,,,0.00,WUHU21623XXSP,2013-01-18 11:49:00,
2013-01-18 06:54:00,20.5,10.1,30.37,NW,315,2.0,7.2,64,0.00,,,0.00,WUHU21623XXSP,2013-01-18 11:54:00,
2013-01-18 06:59:00,20.5,10.5,30.36,NW,315,3.6,4.7,65,0.00,,,0.00,WUHU21623XXSP,2013-01-18 11:59:00,
2013-01-18 07:04:00,20.5,10.5,30.37,NW,315,3.6,3.6,65,0.00,,,0.00,WUHU21623XXSP,2013-01-18 12:04:00,
2013-01-18 07:09:00,20.3,10.3,30.36,NW,315,1.6,5.1,65,0.00,,,0.00,WUHU21623XXSP,2013-01-18 12:09:00,
2013-01-18 07:14:00,20.3,10.3,30.36,NNW,337,0.0,5.1,65,0.00,,,0.00,WUHU21623XXSP,2013-01-18 12:14:00,
2013-01-18 07:19:00,20.3,10.3,30.37,NNW,337,0.0,0.0,65,0.00,,,0.00,WUHU21623XXSP,2013-01-18 12:19:00,
2013-01-18 07:24:00,20.1,10.1,30.36,NNW,337,2.5,3.6,65,0.00,,,0.00,WUHU21623XXSP,2013-01-18 12:24:00,
2013-01-18 07:29:00,20.1,10.1,30.37,NNW,337,2.5,3.6,65,0.00,,,0.00,WUHU21623XXSP,2013-01-18 12:29:00,
2013-01-18 07:34:00,19.9,9.9,30.37,NNW,337,2.5,2.5,65,0.00,,,0.00,WUHU21623XXSP,2013-01-18 12:34:00,
2013-01-18 07:39:00,19.9,9.9,30.36,NNW,337,2.2,3.8,65,0.00,,,0.00,WUHU21623XXSP,2013-01-18 12:39:00,
2013-01-18 07:44:00,19.8,10.1,30.37,NW,315,0.0,3.8,66,0.00,,,0.00,WUHU21623XXSP,2013-01-18 12:44:00,
2013-01-18 07:49:00,19.6,9.9,30.36,NNW,337,1.6,1.8,66,0.00,,,0.00,WUHU21623XXSP,2013-01-18 12:49:00,
2013-01-18 07:54:00,19.6,10.3,30.37,NW,315,0.0,1.6,67,0.00,,,0.00,WUHU21623XXSP,2013-01-18 12:54:00,
2013-01-18 07:59:00,19.8,10.3,30.37,NW,315,0.0,0.0,67,0.00,,,0.00,WUHU21623XXSP,2013-01-18 12:59:00,
2013-01-18 08:04:00,19.6,10.5,30.37,NW,315,1.6,1.6,67,0.00,,,0.00,WUHU21623XXSP,2013-01-18 13:04:00,
2013-01-18 08:09:00,19.6,10.3,30.37,NW,315,1.6,1.6,68,0.00,,,0.00,WUHU21623XXSP,2013-01-18 13:09:00,
2013-01-18 08:14:00,19.6,10.6,30.38,NW,315,0.0,1.6,68,0.00,,,0.00,WUHU21623XXSP,2013-01-18 13:14:00,
2013-01-18 08:19:00,19.6,10.6,30.38,NW,315,0.0,0.0,68,0.00,,,0.00,WUHU21623XXSP,2013-01-18 13:19:00,
2013-01-18 08:24:00,19.6,11.0,30.38,NW,315,0.0,0.0,69,0.00,,,0.00,WUHU21623XXSP,2013-01-18 13:24:00,
2013-01-18 08:29:00,19.6,11.0,30.38,NW,315,0.0,0.0,69,0.00,,,0.00,WUHU21623XXSP,2013-01-18 13:29:00,
2013-01-18 08:34:00,19.6,11.0,30.38,NNW,337,0.0,1.3,69,0.00,,,0.00,WUHU21623XXSP,2013-01-18 13:34:00,
2013-01-18 08:39:00,19.9,11.3,30.38,NNW,337,0.0,1.3,69,0.00,,,0.00,WUHU21623XXSP,2013-01-18 13:39:00,
2013-01-18 08:44:00,19.9,11.3,30.39,NW,315,2.2,2.2,69,0.00,,,0.00,WUHU21623XXSP,2013-01-18 13:44:00,
2013-01-18 08:49:00,20.1,11.5,30.39,NW,315,2.0,2.2,69,0.00,,,0.00,WUHU21623XXSP,2013-01-18 13:49:00,
2013-01-18 08:54:00,20.3,12.0,30.39,WNW,292,2.0,2.2,70,0.00,,,0.00,WUHU21623XXSP,2013-01-18 13:54:00,
2013-01-18 08:59:00,20.5,12.2,30.39,NW,315,3.4,3.4,70,0.00,,,0.00,WUHU21623XXSP,2013-01-18 13:59:00,
2013-01-18 09:04:00,20.7,12.2,30.40,NNW,337,1.3,3.4,70,0.00,,,0.00,WUHU21623XXSP,2013-01-18 14:04:00,
2013-01-18 09:09:00,20.8,12.6,30.39,NW,315,2.5,2.9,70,0.00,,,0.00,WUHU21623XXSP,2013-01-18 14:09:00,
2013-01-18 09:14:00,20.8,12.6,30.40,NW,315,2.2,2.9,70,0.00,,,0.00,WUHU21623XXSP,2013-01-18 14:14:00,
2013-01-18 09:19:00,20.8,12.6,30.39,WNW,292,0.0,2.2,70,0.00,,,0.00,WUHU21623XXSP,2013-01-18 14:19:00,
2013-01-18 09:24:00,21.0,12.7,30.40,NNW,337,3.1,3.1,70,0.00,,,0.00,WUHU21623XXSP,2013-01-18 14:24:00,
2013-01-18 09:29:00,21.0,12.7,30.40,NNW,337,0.0,3.1,70,0.00,,,0.00,WUHU21623XXSP,2013-01-18 14:29:00,
2013-01-18 09:34:00,21.0,12.7,30.41,WNW,292,0.0,0.0,70,0.00,,,0.00,WUHU21623XXSP,2013-01-18 14:34:00,
2013-01-18 09:39:00,21.2,13.1,30.40,NW,315,2.9,2.9,69,0.00,,,0.00,WUHU21623XXSP,2013-01-18 14:39:00,
2013-01-18 09:44:00,21.4,12.7,30.41,NW,315,2.7,3.6,69,0.00,,,0.00,WUHU21623XXSP,2013-01-18 14:44:00,
2013-01-18 09:49:00,21.6,12.9,30.41,NW,315,2.9,3.6,69,0.00,,,0.00,WUHU21623XXSP,2013-01-18 14:49:00,
2013-01-18 09:54:00,21.7,12.6,30.41,NW,315,3.1,3.1,68,0.00,,,0.00,WUHU21623XXSP,2013-01-18 14:54:00,
2013-01-18 09:59:00,21.7,12.8,30.41,NW,315,0.0,3.1,68,0.00,,,0.00,WUHU21623XXSP,2013-01-18 14:59:00,
2013-01-18 10:04:00,21.9,12.9,30.42,NW,315,0.0,3.1,68,0.00,,,0.00,WUHU21623XXSP,2013-01-18 15:04:00,
2013-01-18 10:09:00,21.9,12.9,30.41,NNE,22,0.0,0.0,68,0.00,,,0.00,WUHU21623XXSP,2013-01-18 15:09:00,
2013-01-18 10:14:00,22.5,13.3,30.41,SSE,157,2.2,2.2,68,0.00,,,0.00,WUHU21623XXSP,2013-01-18 15:14:00,
2013-01-18 10:19:00,22.6,13.3,30.42,WNW,292,2.5,6.7,67,0.00,,,0.00,WUHU21623XXSP,2013-01-18 15:19:00,
2013-01-18 10:24:00,22.8,13.1,30.42,NW,315,3.6,6.7,66,0.00,,,0.00,WUHU21623XXSP,2013-01-18 15:24:00,
2013-01-18 10:29:00,22.8,13.1,30.42,WNW,292,2.7,3.6,66,0.00,,,0.00,WUHU21623XXSP,2013-01-18 15:29:00,
2013-01-18 10:34:00,22.8,13.1,30.42,NNW,337,5.1,5.1,66,0.00,,,0.00,WUHU21623XXSP,2013-01-18 15:34:00,
2013-01-18 10:39:00,23.2,13.1,30.42,WNW,292,6.0,6.0,65,0.00,,,0.00,WUHU21623XXSP,2013-01-18 15:39:00,
2013-01-18 10:44:00,23.4,13.3,30.42,North,0,4.9,6.0,65,0.00,,,0.00,WUHU21623XXSP,2013-01-18 15:44:00,
2013-01-18 10:49:00,23.5,13.4,30.41,NW,315,6.3,6.3,65,0.00,,,0.00,WUHU21623XXSP,2013-01-18 15:49:00,
2013-01-18 10:54:00,23.5,13.4,30.41,NW,315,4.3,6.3,65,0.00,,,0.00,WUHU21623XXSP,2013-01-18 15:54:00,
2013-01-18 10:59:00,23.7,13.6,30.41,NNW,337,4.9,4.9,65,0.00,,,0.00,WUHU21623XXSP,2013-01-18 15:59:00,
2013-01-18 11:04:00,23.7,13.2,30.41,NW,315,1.6,6.0,64,0.00,,,0.00,WUHU21623XXSP,2013-01-18 16:04:00,
2013-01-18 11:09:00,23.7,13.2,30.41,NW,315,2.5,6.0,64,0.00,,,0.00,WUHU21623XXSP,2013-01-18 16:09:00,
2013-01-18 11:14:00,23.9,13.4,30.41,NW,315,2.2,3.6,64,0.00,,,0.00,WUHU21623XXSP,2013-01-18 16:14:00,
2013-01-18 11:19:00,24.1,13.6,30.40,WNW,292,1.1,2.5,64,0.00,,,0.00,WUHU21623XXSP,2013-01-18 16:19:00,
2013-01-18 11:24:00,24.1,13.6,30.41,East,90,0.0,1.1,64,0.00,,,0.00,WUHU21623XXSP,2013-01-18 16:24:00,
2013-01-18 11:29:00,24.1,13.6,30.41,NW,315,1.6,3.1,64,0.00,,,0.00,WUHU21623XXSP,2013-01-18 16:29:00,
2013-01-18 11:34:00,24.4,13.9,30.40,NNW,337,3.1,3.1,64,0.00,,,0.00,WUHU21623XXSP,2013-01-18 16:34:00,
2013-01-18 11:39:00,24.6,13.9,30.40,NW,315,2.7,3.1,64,0.00,,,0.00,WUHU21623XXSP,2013-01-18 16:39:00,
2013-01-18 11:44:00,24.6,14.1,30.40,WSW,247,2.5,2.7,64,0.00,,,0.00,WUHU21623XXSP,2013-01-18 16:44:00,
2013-01-18 11:49:00,25.0,14.1,30.40,North,0,0.0,2.7,63,0.00,,,0.00,WUHU21623XXSP,2013-01-18 16:49:00,
2013-01-18 11:54:00,25.0,14.1,30.39,NE,45,0.0,0.0,63,0.00,,,0.00,WUHU21623XXSP,2013-01-18 16:54:00,
2013-01-18 11:59:00,25.2,14.3,30.39,NNW,337,4.7,4.7,63,0.00,,,0.00,WUHU21623XXSP,2013-01-18 16:59:00,
2013-01-18 12:04:00,25.3,14.4,30.38,NNW,337,4.7,4.7,63,0.00,,,0.00,WUHU21623XXSP,2013-01-18 17:04:00,
2013-01-18 12:09:00,25.5,14.6,30.38,NNW,337,0.7,4.7,63,0.00,,,0.00,WUHU21623XXSP,2013-01-18 17:09:00,
2013-01-18 12:14:00,25.5,14.6,30.37,NW,315,3.6,3.6,63,0.00,,,0.00,WUHU21623XXSP,2013-01-18 17:14:00,
2013-01-18 12:19:00,25.7,14.8,30.37,SW,225,0.0,3.6,63,0.00,,,0.00,WUHU21623XXSP,2013-01-18 17:19:00,
2013-01-18 12:24:00,25.9,14.8,30.37,SW,225,0.0,3.6,62,0.00,,,0.00,WUHU21623XXSP,2013-01-18 17:24:00,
2013-01-18 12:29:00,25.9,14.6,30.37,SSW,202,0.0,0.0,62,0.00,,,0.00,WUHU21623XXSP,2013-01-18 17:29:00,
2013-01-18 12:34:00,26.2,15.3,30.37,NNE,22,1.3,1.3,63,0.00,,,0.00,WUHU21623XXSP,2013-01-18 17:34:00,
2013-01-18 12:39:00,26.4,15.1,30.37,SSW,202,0.0,3.1,62,0.00,,,0.00,WUHU21623XXSP,2013-01-18 17:39:00,
2013-01-18 12:44:00,26.6,15.6,30.37,WSW,247,2.5,2.5,63,0.00,,,0.00,WUHU21623XXSP,2013-01-18 17:44:00,
2013-01-18 12:49:00,26.8,15.4,30.36,South,180,3.8,3.8,62,0.00,,,0.00,WUHU21623XXSP,2013-01-18 17:49:00,
2013-01-18 12:54:00,27.0,15.4,30.35,SSW,202,0.0,3.8,62,0.00,,,0.00,WUHU21623XXSP,2013-01-18 17:54:00,
2013-01-18 12:59:00,27.1,15.8,30.36,NW,315,0.0,0.0,62,0.00,,,0.00,WUHU21623XXSP,2013-01-18 17:59:00,
2013-01-18 13:04:00,27.3,15.8,30.36,SW,225,1.1,1.1,62,0.00,,,0.00,WUHU21623XXSP,2013-01-18 18:04:00,
2013-01-18 13:09:00,27.5,16.2,30.35,WSW,247,1.3,2.9,62,0.00,,,0.00,WUHU21623XXSP,2013-01-18 18:09:00,
2013-01-18 13:14:00,27.5,16.2,30.36,SW,225,4.0,4.0,62,0.00,,,0.00,WUHU21623XXSP,2013-01-18 18:14:00,
2013-01-18 13:19:00,27.7,16.3,30.35,WSW,247,0.0,4.0,62,0.00,,,0.00,WUHU21623XXSP,2013-01-18 18:19:00,
2013-01-18 13:24:00,27.7,16.3,30.34,WSW,247,0.0,4.0,62,0.00,,,0.00,WUHU21623XXSP,2013-01-18 18:24:00,
2013-01-18 13:29:00,28.0,16.3,30.35,NNW,337,2.0,2.0,61,0.00,,,0.00,WUHU21623XXSP,2013-01-18 18:29:00,
2013-01-18 13:34:00,28.2,16.5,30.35,North,0,1.3,2.0,61,0.00,,,0.00,WUHU21623XXSP,2013-01-18 18:34:00,
2013-01-18 13:39:00,28.2,16.5,30.35,ENE,67,1.1,1.3,61,0.00,,,0.00,WUHU21623XXSP,2013-01-18 18:39:00,
2013-01-18 13:44:00,28.6,16.5,30.35,WNW,292,1.1,1.1,60,0.00,,,0.00,WUHU21623XXSP,2013-01-18 18:44:00,
2013-01-18 13:49:00,28.9,16.5,30.35,NW,315,1.8,1.8,60,0.00,,,0.00,WUHU21623XXSP,2013-01-18 18:49:00,
2013-01-18 13:54:00,28.9,16.8,30.35,North,0,0.0,1.8,60,0.00,,,0.00,WUHU21623XXSP,2013-01-18 18:54:00,
2013-01-18 13:59:00,29.1,17.0,30.35,NE,45,1.1,1.8,60,0.00,,,0.00,WUHU21623XXSP,2013-01-18 18:59:00,
2013-01-18 14:04:00,29.1,17.0,30.35,SSE,157,0.0,1.1,60,0.00,,,0.00,WUHU21623XXSP,2013-01-18 19:04:00,
2013-01-18 14:09:00,29.3,17.0,30.34,SSE,157,0.0,0.0,60,0.00,,,0.00,WUHU21623XXSP,2013-01-18 19:09:00,
2013-01-18 14:14:00,29.3,17.1,30.34,NW,315,2.2,2.2,60,0.00,,,0.00,WUHU21623XXSP,2013-01-18 19:14:00,
2013-01-18 14:19:00,29.7,17.5,30.33,WSW,247,3.6,3.6,60,0.00,,,0.00,WUHU21623XXSP,2013-01-18 19:19:00,
2013-01-18 14:24:00,29.8,17.6,30.33,WNW,292,0.0,3.6,60,0.00,,,0.00,WUHU21623XXSP,2013-01-18 19:24:00,
2013-01-18 14:29:00,30.0,17.2,30.33,WSW,247,0.0,1.8,59,0.00,,,0.00,WUHU21623XXSP,2013-01-18 19:29:00,
2013-01-18 14:34:00,30.0,17.4,30.32,NE,45,0.0,0.0,59,0.00,,,0.00,WUHU21623XXSP,2013-01-18 19:34:00,
2013-01-18 14:39:00,30.0,17.2,30.32,NE,45,0.0,0.0,59,0.00,,,0.00,WUHU21623XXSP,2013-01-18 19:39:00,
2013-01-18 14:44:00,30.0,17.4,30.33,East,90,0.0,0.0,59,0.00,,,0.00,WUHU21623XXSP,2013-01-18 19:44:00,
2013-01-18 14:49:00,30.0,17.4,30.33,North,0,0.0,0.0,59,0.00,,,0.00,WUHU21623XXSP,2013-01-18 19:49:00,
2013-01-18 14:54:00,30.0,17.4,30.33,SW,225,0.0,0.0,58,0.00,,,0.00,WUHU21623XXSP,2013-01-18 19:54:00,
2013-01-18 14:59:00,30.0,17.0,30.33,WNW,292,0.9,4.7,58,0.00,,,0.00,WUHU21623XXSP,2013-01-18 19:59:00,
2013-01-18 15:04:00,30.0,16.6,30.32,West,270,2.0,4.7,57,0.00,,,0.00,WUHU21623XXSP,2013-01-18 20:04:00,
2013-01-18 15:09:00,30.2,16.7,30.32,West,270,2.0,3.4,58,0.00,,,0.00,WUHU21623XXSP,2013-01-18 20:09:00,
2013-01-18 15:14:00,30.4,17.3,30.32,WSW,247,0.0,2.0,58,0.00,,,0.00,WUHU21623XXSP,2013-01-18 20:14:00,
2013-01-18 15:19:00,30.4,17.3,30.32,WNW,292,0.0,0.0,58,0.00,,,0.00,WUHU21623XXSP,2013-01-18 20:19:00,
2013-01-18 15:24:00,30.4,17.3,30.32,West,270,1.1,1.1,58,0.00,,,0.00,WUHU21623XXSP,2013-01-18 20:24:00,
2013-01-18 15:29:00,30.4,17.3,30.32,ESE,112,0.0,1.1,58,0.00,,,0.00,WUHU21623XXSP,2013-01-18 20:29:00,
2013-01-18 15:34:00,30.0,17.1,30.32,SE,135,0.0,1.1,58,0.00,,,0.00,WUHU21623XXSP,2013-01-18 20:34:00,
2013-01-18 15:39:00,30.2,17.1,30.32,SE,135,0.0,0.0,58,0.00,,,0.00,WUHU21623XXSP,2013-01-18 20:39:00,
2013-01-18 15:44:00,30.2,17.1,30.32,SSW,202,0.0,0.0,58,0.00,,,0.00,WUHU21623XXSP,2013-01-18 20:44:00,
2013-01-18 15:49:00,30.2,17.1,30.32,West,270,0.0,0.0,58,0.00,,,0.00,WUHU21623XXSP,2013-01-18 20:49:00,
2013-01-18 15:54:00,30.2,17.1,30.32,SW,225,0.0,0.0,58,0.00,,,0.00,WUHU21623XXSP,2013-01-18 20:54:00,
2013-01-18 15:59:00,30.2,17.5,30.32,NE,45,0.0,0.0,59,0.00,,,0.00,WUHU21623XXSP,2013-01-18 20:59:00,
2013-01-18 16:04:00,30.2,17.5,30.32,ENE,67,0.0,1.3,59,0.00,,,0.00,WUHU21623XXSP,2013-01-18 21:04:00,
2013-01-18 16:09:00,30.0,17.4,30.31,ENE,67,0.0,1.3,59,0.00,,,0.00,WUHU21623XXSP,2013-01-18 21:09:00,
2013-01-18 16:14:00,30.0,17.8,30.31,East,90,0.0,2.0,60,0.00,,,0.00,WUHU21623XXSP,2013-01-18 21:14:00,
2013-01-18 16:19:00,30.0,17.8,30.31,NE,45,0.0,2.0,60,0.00,,,0.00,WUHU21623XXSP,2013-01-18 21:19:00,
2013-01-18 16:24:00,29.8,17.6,30.31,SW,225,0.0,1.3,60,0.00,,,0.00,WUHU21623XXSP,2013-01-18 21:24:00,
2013-01-18 16:29:00,29.8,17.6,30.31,ENE,67,1.6,2.2,60,0.00,,,0.00,WUHU21623XXSP,2013-01-18 21:29:00,
2013-01-18 16:34:00,29.8,17.6,30.31,ESE,112,2.0,2.2,60,0.00,,,0.00,WUHU21623XXSP,2013-01-18 21:34:00,
2013-01-18 16:39:00,29.7,17.5,30.31,NE,45,2.2,2.2,60,0.00,,,0.00,WUHU21623XXSP,2013-01-18 21:39:00,
2013-01-18 16:44:00,29.5,17.3,30.31,East,90,0.0,2.2,60,0.00,,,0.00,WUHU21623XXSP,2013-01-18 21:44:00,
2013-01-18 16:49:00,29.3,17.5,30.31,SW,225,2.7,2.7,61,0.00,,,0.00,WUHU21623XXSP,2013-01-18 21:49:00,
2013-01-18 16:54:00,29.1,17.3,30.32,NNW,337,0.0,2.7,61,0.00,,,0.00,WUHU21623XXSP,2013-01-18 21:54:00,
2013-01-18 16:59:00,29.1,17.3,30.31,West,270,0.0,1.1,61,0.00,,,0.00,WUHU21623XXSP,2013-01-18 21:59:00,
2013-01-18 17:04:00,29.1,17.3,30.30,ESE,112,1.1,1.6,61,0.00,,,0.00,WUHU21623XXSP,2013-01-18 22:04:00,
2013-01-18 17:09:00,29.1,17.3,30.30,East,90,0.0,1.6,61,0.00,,,0.00,WUHU21623XXSP,2013-01-18 22:09:00,
2013-01-18 17:14:00,29.1,17.3,30.30,East,90,0.0,0.0,61,0.00,,,0.00,WUHU21623XXSP,2013-01-18 22:14:00,
2013-01-18 17:19:00,29.1,17.7,30.29,WSW,247,0.0,0.0,62,0.00,,,0.00,WUHU21623XXSP,2013-01-18 22:19:00,
2013-01-18 17:24:00,28.9,17.5,30.29,WSW,247,0.0,0.0,62,0.00,,,0.00,WUHU21623XXSP,2013-01-18 22:24:00,
2013-01-18 17:29:00,28.8,17.4,30.29,ENE,67,1.6,1.6,62,0.00,,,0.00,WUHU21623XXSP,2013-01-18 22:29:00,
2013-01-18 17:34:00,28.6,17.2,30.29,ENE,67,0.0,1.6,62,0.00,,,0.00,WUHU21623XXSP,2013-01-18 22:34:00,
2013-01-18 17:39:00,28.4,17.2,30.29,ENE,67,0.0,1.6,62,0.00,,,0.00,WUHU21623XXSP,2013-01-18 22:39:00,
2013-01-18 17:44:00,28.2,17.2,30.29,SE,135,0.0,0.0,63,0.00,,,0.00,WUHU21623XXSP,2013-01-18 22:44:00,
2013-01-18 17:49:00,28.2,17.2,30.28,ENE,67,0.0,1.6,63,0.00,,,0.00,WUHU21623XXSP,2013-01-18 22:49:00,
2013-01-18 17:54:00,28.2,17.2,30.28,South,180,2.2,2.2,63,0.00,,,0.00,WUHU21623XXSP,2013-01-18 22:54:00,
2013-01-18 17:59:00,28.2,17.2,30.28,SE,135,2.0,2.2,63,0.00,,,0.00,WUHU21623XXSP,2013-01-18 22:59:00,
2013-01-18 18:04:00,28.2,17.2,30.27,SE,135,2.0,2.2,63,0.00,,,0.00,WUHU21623XXSP,2013-01-18 23:04:00,
2013-01-18 18:09:00,28.2,17.2,30.27,ENE,67,0.0,2.0,63,0.00,,,0.00,WUHU21623XXSP,2013-01-18 23:09:00,
2013-01-18 18:14:00,28.2,17.2,30.28,East,90,0.0,0.0,63,0.00,,,0.00,WUHU21623XXSP,2013-01-18 23:14:00,
2013-01-18 18:19:00,28.2,17.2,30.28,ESE,112,1.8,1.8,63,0.00,,,0.00,WUHU21623XXSP,2013-01-18 23:19:00,
2013-01-18 18:24:00,28.2,17.2,30.28,ESE,112,1.8,1.8,63,0.00,,,0.00,WUHU21623XXSP,2013-01-18 23:24:00,
2013-01-18 18:29:00,28.2,17.2,30.28,SSE,157,2.0,2.0,63,0.00,,,0.00,WUHU21623XXSP,2013-01-18 23:29:00,
2013-01-18 18:34:00,28.2,17.2,30.28,ENE,67,0.0,2.0,63,0.00,,,0.00,WUHU21623XXSP,2013-01-18 23:34:00,
2013-01-18 18:39:00,28.2,17.2,30.27,ENE,67,0.0,0.0,63,0.00,,,0.00,WUHU21623XXSP,2013-01-18 23:39:00,
2013-01-18 18:44:00,28.2,17.2,30.27,SE,135,1.3,1.3,63,0.00,,,0.00,WUHU21623XXSP,2013-01-18 23:44:00,
2013-01-18 18:49:00,28.2,17.2,30.27,NE,45,1.3,1.3,63,0.00,,,0.00,WUHU21623XXSP,2013-01-18 23:49:00,
2013-01-18 18:54:00,28.2,17.2,30.28,East,90,0.0,2.0,63,0.00,,,0.00,WUHU21623XXSP,2013-01-18 23:54:00,
2013-01-18 18:59:00,28.4,17.4,30.28,ENE,67,1.3,2.0,63,0.00,,,0.00,WUHU21623XXSP,2013-01-18 23:59:00,
2013-01-18 19:04:00,28.2,17.2,30.28,ESE,112,0.0,1.3,63,0.00,,,0.00,WUHU21623XXSP,2013-01-19 00:04:00,
2013-01-18 19:09:00,28.6,17.6,30.28,East,90,0.9,0.9,63,0.00,,,0.00,WUHU21623XXSP,2013-01-19 00:09:00,
2013-01-18 19:14:00,28.6,17.6,30.28,ENE,67,0.0,0.9,63,0.00,,,0.00,WUHU21623XXSP,2013-01-19 00:14:00,
2013-01-18 19:19:00,28.6,17.6,30.28,NNE,22,1.3,2.0,63,0.00,,,0.00,WUHU21623XXSP,2013-01-19 00:19:00,
2013-01-18 19:24:00,28.6,17.2,30.27,South,180,2.2,2.2,62,0.00,,,0.00,WUHU21623XXSP,2013-01-19 00:24:00,
2013-01-18 19:29:00,28.6,17.2,30.27,SSE,157,0.0,2.2,62,0.00,,,0.00,WUHU21623XXSP,2013-01-19 00:29:00,
2013-01-18 19:34:00,28.6,17.2,30.27,ESE,112,0.0,2.2,62,0.00,,,0.00,WUHU21623XXSP,2013-01-19 00:34:00,
2013-01-18 19:39:00,28.6,17.2,30.27,ENE,67,2.2,2.2,62,0.00,,,0.00,WUHU21623XXSP,2013-01-19 00:39:00,
2013-01-18 19:44:00,28.6,17.2,30.27,East,90,0.0,2.2,62,0.00,,,0.00,WUHU21623XXSP,2013-01-19 00:44:00,
2013-01-18 19:49:00,28.6,17.2,30.27,ESE,112,0.0,2.2,62,0.00,,,0.00,WUHU21623XXSP,2013-01-19 00:49:00,
2013-01-18 19:54:00,28.6,17.2,30.26,ESE,112,3.1,3.1,62,0.00,,,0.00,WUHU21623XXSP,2013-01-19 00:54:00,
2013-01-18 19:59:00,28.6,17.2,30.26,WNW,292,1.3,3.1,62,0.00,,,0.00,WUHU21623XXSP,2013-01-19 00:59:00,
2013-01-18 20:04:00,28.2,16.9,30.26,ENE,67,0.7,1.8,62,0.00,,,0.00,WUHU21623XXSP,2013-01-19 01:04:00,
2013-01-18 20:09:00,28.2,17.2,30.26,ENE,67,0.0,1.3,63,0.00,,,0.00,WUHU21623XXSP,2013-01-19 01:09:00,
2013-01-18 20:14:00,28.2,17.2,30.26,ENE,67,0.0,0.0,63,0.00,,,0.00,WUHU21623XXSP,2013-01-19 01:14:00,
2013-01-18 20:19:00,28.2,17.2,30.25,SSE,157,0.0,0.0,63,0.00,,,0.00,WUHU21623XXSP,2013-01-19 01:19:00,
2013-01-18 20:24:00,28.2,17.2,30.25,SSE,157,0.0,0.0,63,0.00,,,0.00,WUHU21623XXSP,2013-01-19 01:24:00,
2013-01-18 20:29:00,28.2,17.2,30.25,SSE,157,0.0,0.0,63,0.00,,,0.00,WUHU21623XXSP,2013-01-19 01:29:00,
2013-01-18 20:34:00,28.2,17.2,30.26,SSE,157,0.0,0.0,63,0.00,,,0.00,WUHU21623XXSP,2013-01-19 01:34:00,
2013-01-18 20:39:00,28.2,17.2,30.26,SSE,157,0.0,0.0,63,0.00,,,0.00,WUHU21623XXSP,2013-01-19 01:39:00,
2013-01-18 20:44:00,28.2,17.2,30.25,WNW,292,0.0,0.0,63,0.00,,,0.00,WUHU21623XXSP,2013-01-19 01:44:00,
2013-01-18 20:49:00,28.2,17.2,30.25,SW,225,0.0,1.8,63,0.00,,,0.00,WUHU21623XXSP,2013-01-19 01:49:00,
2013-01-18 20:54:00,28.2,17.2,30.25,WNW,292,1.8,4.0,63,0.00,,,0.00,WUHU21623XXSP,2013-01-19 01:54:00,
2013-01-18 20:59:00,28.0,17.1,30.25,NE,45,0.9,4.0,63,0.00,,,0.00,WUHU21623XXSP,2013-01-19 01:59:00,
2013-01-18 21:04:00,28.0,17.1,30.24,NE,45,2.0,2.2,63,0.00,,,0.00,WUHU21623XXSP,2013-01-19 02:04:00,
2013-01-18 21:09:00,28.0,17.1,30.24,WSW,247,0.0,2.2,63,0.00,,,0.00,WUHU21623XXSP,2013-01-19 02:09:00,
2013-01-18 21:14:00,28.2,17.2,30.24,SSE,157,0.0,1.3,63,0.00,,,0.00,WUHU21623XXSP,2013-01-19 02:14:00,
2013-01-18 21:19:00,28.2,17.2,30.24,SE,135,1.6,1.6,63,0.00,,,0.00,WUHU21623XXSP,2013-01-19 02:19:00,
2013-01-18 21:24:00,28.2,17.2,30.24,SE,135,0.0,1.6,63,0.00,,,0.00,WUHU21623XXSP,2013-01-19 02:24:00,
2013-01-18 21:29:00,28.2,16.9,30.24,ENE,67,3.8,3.8,62,0.00,,,0.00,WUHU21623XXSP,2013-01-19 02:29:00,
2013-01-18 21:34:00,28.2,16.9,30.23,NNW,337,0.0,3.8,62,0.00,,,0.00,WUHU21623XXSP,2013-01-19 02:34:00,
2013-01-18 21:39:00,28.2,16.9,30.23,NNW,337,0.0,1.1,62,0.00,,,0.00,WUHU21623XXSP,2013-01-19 02:39:00,
2013-01-18 21:44:00,28.2,16.9,30.23,ESE,112,0.0,0.0,62,0.00,,,0.00,WUHU21623XXSP,2013-01-19 02:44:00,
2013-01-18 21:49:00,28.2,16.9,30.23,SSE,157,0.7,0.7,62,0.00,,,0.00,WUHU21623XXSP,2013-01-19 02:49:00,
2013-01-18 21:54:00,28.2,16.9,30.22,SSW,202,0.0,0.7,62,0.00,,,0.00,WUHU21623XXSP,2013-01-19 02:54:00,
2013-01-18 21:59:00,28.2,16.9,30.22,NW,315,0.0,0.0,62,0.00,,,0.00,WUHU21623XXSP,2013-01-19 02:59:00,
2013-01-18 22:04:00,28.6,17.2,30.22,SW,225,2.0,2.0,62,0.00,,,0.00,WUHU21623XXSP,2013-01-19 03:04:00,
2013-01-18 22:09:00,28.6,17.2,30.22,SE,135,0.0,3.8,62,0.00,,,0.00,WUHU21623XXSP,2013-01-19 03:09:00,
2013-01-18 22:14:00,28.4,17.1,30.22,SE,135,0.0,3.8,62,0.00,,,0.00,WUHU21623XXSP,2013-01-19 03:14:00,
2013-01-18 22:19:00,28.4,17.1,30.21,West,270,0.0,2.0,62,0.00,,,0.00,WUHU21623XXSP,2013-01-19 03:19:00,
2013-01-18 22:24:00,28.6,17.2,30.21,ENE,67,1.1,1.1,62,0.00,,,0.00,WUHU21623XXSP,2013-01-19 03:24:00,
2013-01-18 22:29:00,28.6,17.2,30.21,SE,135,0.0,2.9,62,0.00,,,0.00,WUHU21623XXSP,2013-01-19 03:29:00,
2013-01-18 22:34:00,28.2,16.9,30.21,ENE,67,0.0,2.9,62,0.00,,,0.00,WUHU21623XXSP,2013-01-19 03:34:00,
2013-01-18 22:39:00,28.2,16.9,30.20,SSE,157,1.1,1.1,62,0.00,,,0.00,WUHU21623XXSP,2013-01-19 03:39:00,
2013-01-18 22:44:00,28.2,16.9,30.21,SSE,157,0.0,1.1,62,0.00,,,0.00,WUHU21623XXSP,2013-01-19 03:44:00,
2013-01-18 22:49:00,28.2,16.9,30.20,East,90,0.0,0.0,62,0.00,,,0.00,WUHU21623XXSP,2013-01-19 03:49:00,
2013-01-18 22:54:00,28.2,16.9,30.19,SW,225,3.8,3.8,62,0.00,,,0.00,WUHU21623XXSP,2013-01-19 03:54:00,
2013-01-18 22:59:00,28.2,17.2,30.20,SSW,202,0.0,3.8,63,0.00,,,0.00,WUHU21623XXSP,2013-01-19 03:59:00,
2013-01-18 23:04:00,28.2,17.2,30.19,ESE,112,0.0,3.8,62,0.00,,,0.00,WUHU21623XXSP,2013-01-19 04:04:00,
2013-01-18 23:09:00,28.2,16.9,30.19,ENE,67,0.0,1.3,62,0.00,,,0.00,WUHU21623XXSP,2013-01-19 04:09:00,
2013-01-18 23:14:00,28.2,17.2,30.19,South,180,0.0,0.0,63,0.00,,,0.00,WUHU21623XXSP,2013-01-19 04:14:00,
2013-01-18 23:19:00,28.2,17.2,30.19,SE,135,0.9,1.3,63,0.00,,,0.00,WUHU21623XXSP,2013-01-19 04:19:00,
2013-01-18 23:24:00,28.2,17.2,30.19,SE,135,0.9,1.3,63,0.00,,,0.00,WUHU21623XXSP,2013-01-19 04:24:00,
2013-01-18 23:29:00,28.2,17.2,30.18,East,90,0.0,0.9,63,0.00,,,0.00,WUHU21623XXSP,2013-01-19 04:29:00,
2013-01-18 23:34:00,28.2,17.2,30.18,SSW,202,0.0,1.1,63,0.00,,,0.00,WUHU21623XXSP,2013-01-19 04:34:00,
2013-01-18 23:39:00,28.2,17.2,30.18,SE,135,0.0,1.1,63,0.00,,,0.00,WUHU21623XXSP,2013-01-19 04:39:00,
2013-01-18 23:44:00,28.2,17.2,30.18,ENE,67,2.0,2.0,63,0.00,,,0.00,WUHU21623XXSP,2013-01-19 04:44:00,
2013-01-18 23:49:00,28.6,17.4,30.18,NE,45,0.0,2.0,63,0.00,,,0.00,WUHU21623XXSP,2013-01-19 04:49:00,
2013-01-18 23:54:00,28.6,17.6,30.18,NE,45,0.0,0.0,63,0.00,,,0.00,WUHU21623XXSP,2013-01-19 04:54:00,
2013-01-18 23:59:00,28.6,17.6,30.18,SW,225,0.0,0.0,63,0.00,,,0.00,WUHU21623XXSP,2013-01-19 04:59:00,